Previsão horária em Abadzekhskaya

Hoje, 15 Abril, Quinta-feira

Tempo Temperatura Precipitação Vento Pressão Humidade
00:00 +5°C° 0 mm 2 m/s 713 mmHg 90%
01:00 +5°C° 0 mm 2 m/s 713 mmHg 89%
02:00 +5°C° 0 mm 2 m/s 713 mmHg 88%
03:00 +5°C° 0 mm 2 m/s 713 mmHg 86%
04:00 +5°C° 0 mm 2 m/s 713 mmHg 84%
05:00 +5°C° 0 mm 2 m/s 713 mmHg 83%
06:00 +4°C° 0 mm 2 m/s 713 mmHg 81%
07:00 +8°C° 0 mm 1 m/s 713 mmHg 72%
08:00 +11°C° 0 mm 1 m/s 713 mmHg 64%
09:00 +12°C° 0 mm 0 m/s 713 mmHg 55%
10:00 +15°C° 0 mm 1 m/s 713 mmHg 51%
11:00 +16°C° 0 mm 1 m/s 713 mmHg 46%
12:00 +18°C° 0 mm 1 m/s 713 mmHg 42%
13:00 +18°C° 0 mm 1 m/s 713 mmHg 44%
14:00 +18°C° 0 mm 1 m/s 713 mmHg 46%
15:00 +18°C° 0 mm 1 m/s 713 mmHg 47%
16:00 +16°C° 0.1 mm 1 m/s 713 mmHg 56%
17:00 +15°C° 0.1 mm 1 m/s 713 mmHg 64%
18:00 +14°C° 0.1 mm 1 m/s 713 mmHg 72%
19:00 +12°C° 0 mm 1 m/s 713 mmHg 77%
20:00 +10°C° 0 mm 1 m/s 713 mmHg 82%
21:00 +9°C° 0 mm 1 m/s 713 mmHg 86%
22:00 +9°C° 0 mm 1 m/s 713 mmHg 86%
23:00 +8°C° 0 mm 1 m/s 713 mmHg 86%

Amanhã, 16 Abril, Sexta-feira

Tempo Temperatura Precipitação Vento Pressão Humidade
00:00 +7°C° 0 mm 2 m/s 713 mmHg 86%
01:00 +7°C° 0 mm 2 m/s 713 mmHg 85%
02:00 +7°C° 0 mm 1 m/s 713 mmHg 84%
03:00 +7°C° 0 mm 1 m/s 713 mmHg 84%
04:00 +7°C° 0 mm 1 m/s 713 mmHg 83%
05:00 +7°C° 0 mm 1 m/s 713 mmHg 82%
06:00 +7°C° 0 mm 1 m/s 713 mmHg 81%
07:00 +9°C° 0.1 mm 1 m/s 713 mmHg 78%
08:00 +10°C° 0.1 mm 1 m/s 713 mmHg 76%
09:00 +11°C° 0.1 mm 0 m/s 714 mmHg 73%
10:00 +12°C° 0.2 mm 1 m/s 714 mmHg 76%
11:00 +12°C° 0.2 mm 2 m/s 714 mmHg 79%
12:00 +12°C° 0.2 mm 2 m/s 714 mmHg 82%
13:00 +10°C° 0.6 mm 2 m/s 714 mmHg 86%
14:00 +9°C° 0.6 mm 2 m/s 714 mmHg 89%
15:00 +9°C° 0.6 mm 2 m/s 714 mmHg 93%
16:00 +10°C° 0 mm 1 m/s 714 mmHg 92%
17:00 +10°C° 0 mm 1 m/s 714 mmHg 92%
18:00 +9°C° 0 mm 0 m/s 714 mmHg 92%
19:00 +9°C° 0 mm 1 m/s 715 mmHg 93%
20:00 +9°C° 0 mm 1 m/s 715 mmHg 94%
21:00 +8°C° 0 mm 1 m/s 715 mmHg 96%
22:00 +8°C° 0 mm 1 m/s 715 mmHg 95%
23:00 +8°C° 0 mm 1 m/s 715 mmHg 95%

Depois de amanhã, 17 Abril, Sábado

Tempo Temperatura Precipitação Vento Pressão Humidade
00:00 +7°C° 0 mm 0 m/s 715 mmHg 95%
01:00 +8°C° 1.3 mm 1 m/s 715 mmHg 96%
02:00 +8°C° 1.3 mm 1 m/s 715 mmHg 97%
03:00 +8°C° 1.3 mm 1 m/s 715 mmHg 98%
04:00 +8°C° 1 mm 1 m/s 715 mmHg 98%
05:00 +8°C° 1 mm 1 m/s 715 mmHg 98%
06:00 +8°C° 1 mm 1 m/s 716 mmHg 97%
07:00 +8°C° 0.1 mm 1 m/s 716 mmHg 96%
08:00 +8°C° 0.1 mm 1 m/s 716 mmHg 95%
09:00 +8°C° 0.1 mm 0 m/s 716 mmHg 94%
10:00 +8°C° 0 mm 0 m/s 716 mmHg 91%
11:00 +9°C° 0 mm 0 m/s 716 mmHg 88%
12:00 +10°C° 0 mm 0 m/s 716 mmHg 86%
13:00 +9°C° 0.1 mm 0 m/s 716 mmHg 86%
14:00 +10°C° 0.1 mm 1 m/s 716 mmHg 87%
15:00 +10°C° 0.1 mm 1 m/s 716 mmHg 88%
16:00 +10°C° 0.2 mm 1 m/s 716 mmHg 89%
17:00 +10°C° 0.2 mm 1 m/s 716 mmHg 91%
18:00 +10°C° 0.2 mm 1 m/s 716 mmHg 93%
19:00 +10°C° 0 mm 1 m/s 716 mmHg 93%
20:00 +9°C° 0 mm 1 m/s 716 mmHg 94%
21:00 +9°C° 0 mm 1 m/s 716 mmHg 95%
22:00 +9°C° 0 mm 1 m/s 715 mmHg 94%
23:00 +9°C° 0 mm 1 m/s 715 mmHg 94%

18 Abril, Domingo

Tempo Temperatura Precipitação Vento Pressão Humidade
00:00 +8°C° 0 mm 1 m/s 715 mmHg 94%
01:00 +8°C° 0 mm 1 m/s 715 mmHg 93%
02:00 +7°C° 0 mm 0 m/s 714 mmHg 93%
03:00 +8°C° 0 mm 0 m/s 714 mmHg 93%
04:00 +8°C° 0.1 mm 1 m/s 714 mmHg 94%
05:00 +8°C° 0.1 mm 1 m/s 714 mmHg 95%
06:00 +8°C° 0.1 mm 1 m/s 714 mmHg 95%
07:00 +9°C° 0.2 mm 1 m/s 713 mmHg 94%
08:00 +10°C° 0.2 mm 1 m/s 713 mmHg 92%
09:00 +10°C° 0.2 mm 1 m/s 713 mmHg 91%
10:00 +10°C° 0.1 mm 2 m/s 713 mmHg 88%
11:00 +12°C° 0.1 mm 2 m/s 713 mmHg 86%
12:00 +13°C° 0.1 mm 2 m/s 713 mmHg 84%
13:00 +12°C° 0.2 mm 2 m/s 713 mmHg 87%
14:00 +10°C° 0.2 mm 2 m/s 713 mmHg 91%
15:00 +10°C° 0.2 mm 2 m/s 713 mmHg 94%
16:00 +9°C° 0.1 mm 2 m/s 714 mmHg 95%
17:00 +8°C° 0.1 mm 2 m/s 714 mmHg 96%
18:00 +8°C° 0.1 mm 2 m/s 714 mmHg 97%
19:00 +8°C° 0.1 mm 2 m/s 714 mmHg 96%
20:00 +7°C° 0.1 mm 2 m/s 715 mmHg 96%
21:00 +7°C° 0.1 mm 2 m/s 715 mmHg 96%
22:00 +7°C° 0 mm 2 m/s 715 mmHg 95%
23:00 +8°C° 0 mm 1 m/s 714 mmHg 95%

19 Abril, Segunda-feira

Tempo Temperatura Precipitação Vento Pressão Humidade
00:00 +8°C° 0 mm 1 m/s 714 mmHg 95%
01:00 +8°C° 0 mm 1 m/s 714 mmHg 95%
02:00 +8°C° 0 mm 1 m/s 714 mmHg 95%
03:00 +8°C° 0 mm 1 m/s 714 mmHg 95%
04:00 +8°C° 0 mm 1 m/s 714 mmHg 95%
05:00 +8°C° 0 mm 1 m/s 714 mmHg 95%
06:00 +8°C° 0 mm 1 m/s 714 mmHg 95%
07:00 +9°C° 0 mm 2 m/s 714 mmHg 90%
08:00 +12°C° 0 mm 2 m/s 714 mmHg 85%
09:00 +13°C° 0 mm 2 m/s 714 mmHg 79%
10:00 +15°C° 0 mm 2 m/s 714 mmHg 73%
11:00 +16°C° 0 mm 3 m/s 715 mmHg 67%
12:00 +18°C° 0 mm 3 m/s 715 mmHg 61%
13:00 +18°C° 0.1 mm 3 m/s 714 mmHg 62%
14:00 +18°C° 0.1 mm 3 m/s 714 mmHg 63%
15:00 +18°C° 0.1 mm 4 m/s 714 mmHg 64%
16:00 +17°C° 0 mm 4 m/s 714 mmHg 67%
17:00 +15°C° 0 mm 4 m/s 714 mmHg 71%
18:00 +14°C° 0 mm 3 m/s 713 mmHg 74%
19:00 +13°C° 0 mm 4 m/s 713 mmHg 77%
20:00 +12°C° 0 mm 4 m/s 713 mmHg 79%
21:00 +11°C° 0 mm 4 m/s 713 mmHg 82%
22:00 +11°C° 0 mm 3 m/s 712 mmHg 82%
23:00 +10°C° 0 mm 3 m/s 712 mmHg 82%

20 Abril, Terça-feira

Tempo Temperatura Precipitação Vento Pressão Humidade
00:00 +10°C° 0 mm 3 m/s 711 mmHg 82%
01:00 +10°C° 0 mm 3 m/s 711 mmHg 82%
02:00 +10°C° 0 mm 3 m/s 710 mmHg 82%
03:00 +10°C° 0 mm 3 m/s 710 mmHg 82%
04:00 +10°C° 0 mm 3 m/s 709 mmHg 80%
05:00 +11°C° 0 mm 3 m/s 709 mmHg 79%
06:00 +11°C° 0 mm 3 m/s 708 mmHg 78%
07:00 +13°C° 0 mm 3 m/s 708 mmHg 73%
08:00 +16°C° 0 mm 3 m/s 708 mmHg 69%
09:00 +18°C° 0 mm 3 m/s 708 mmHg 64%
10:00 +17°C° 0.1 mm 3 m/s 708 mmHg 68%
11:00 +17°C° 0.1 mm 3 m/s 708 mmHg 73%
12:00 +17°C° 0.1 mm 3 m/s 708 mmHg 77%
13:00 +19°C° 0 mm 4 m/s 707 mmHg 70%
14:00 +20°C° 0 mm 5 m/s 706 mmHg 64%
15:00 +22°C° 0 mm 5 m/s 705 mmHg 57%
16:00 +20°C° 0.4 mm 5 m/s 705 mmHg 68%
17:00 +17°C° 0.4 mm 4 m/s 706 mmHg 79%
18:00 +14°C° 0.4 mm 3 m/s 706 mmHg 90%
19:00 +14°C° 0.3 mm 2 m/s 707 mmHg 92%
20:00 +13°C° 0.3 mm 1 m/s 707 mmHg 93%
21:00 +13°C° 0.3 mm 1 m/s 708 mmHg 95%
22:00 +12°C° 0 mm 1 m/s 708 mmHg 95%
23:00 +12°C° 0 mm 1 m/s 709 mmHg 96%
Mostrar mais

Necessitamos do seu Consentimento

A Meteoprog e os seus Fornecedores de Serviços podem armazenar e aceder a dados pessoais como cookies, identificadores do dispositivo ou outras tecnologias semelhantes existentes no seu dispositivo e processar estes dados para personalizar conteúdos e anúncios, assim como funcionalidades nas redes sociais e análise de tráfego.

  • Armazenar e/ou aceder a informações no seu dispositivo

    Os cookies, identificadores do dispositivo ou outras informações podem ser armazenados ou acedidos no seu dispositivo, para os fins acima indicados.

  • Anúncios e conteúdos personalizados, medição de anúncios e conteúdos, dados sobre o público-alvo e desenvolvimento de produtos

    Os anúncios e os conteúdos podem ser personalizados com base num perfil. Podem ser adicionados dados adicionais para uma maior personalização dos anúncios e dos conteúdos. A eficácia dos anúncios e dos conteúdos pode ser medida. Podem ser obtidas informações sobre o público que visualizou os anúncios e os conteúdos. Estes dados podem ser usados para desenvolver ou melhorar sistemas, softwares ou a experiência do utilizador.

Ao clicar em "Eu concordo”, permitirá o uso de cookies, identificadores do dispositivo e web beacons mencionados ou outras tecnologias semelhantes. As configurações do navegador do seu dispositivo podem ser alteradas.

Para certos fins, podem ser invocados interesses legítimos ao invés de consentimento. Pode ler mais informação sobre este assunto na nossa Política de Privacidade e Cookies.